FW4235 Weather Reports


Display with metric or nautical units.
time (UTC)temp
F
wind
direction
speed
MPH
gust
MPH
rain 1hr
in
rain 24hr
in
rain mn
in
humidity
%
barometer
mb
20260504050507 53 311 0.0 0.0 0.00 0.00 0.00 64 1017.6
20260504044507 52 338 0.0 0.0 0.00 0.00 0.00 65 1017.5
20260504044007 52 340 0.0 0.0 0.00 0.00 0.00 65 1017.4
20260504043507 52 336 0.0 0.0 0.00 0.00 0.00 66 1017.4
20260504043008 52 345 0.0 0.0 0.00 0.00 0.00 66 1017.4
20260504042507 51 341 0.0 0.0 0.00 0.00 0.00 67 1017.4
20260504042007 51 323 0.0 0.0 0.00 0.00 0.00 68 1017.4
20260504041007 50 323 0.0 0.0 0.00 0.00 0.00 68 1017.4
20260504040507 49 304 0.0 0.0 0.00 0.00 0.00 69 1017.4
20260504035008 49 355 0.0 0.0 0.00 0.00 0.00 67 1017.3
20260504034507 49 355 0.0 0.0 0.00 0.00 0.00 67 1017.2
20260504034008 49 354 0.0 0.0 0.00 0.00 0.00 67 1017.2
20260504033508 49 318 0.0 0.0 0.00 0.00 0.00 66 1017.1
20260504033007 50 296 0.0 0.0 0.00 0.00 0.00 66 1017.2
20260504032507 50 300 0.0 0.0 0.00 0.00 0.00 66 1017.1
20260504032007 50 346 0.0 0.0 0.00 0.00 0.00 66 1017.1
20260504031507 50 351 0.0 0.0 0.00 0.00 0.00 66 1017.1
20260504031007 50 347 0.0 0.0 0.00 0.00 0.00 67 1017.1
20260504030507 50 337 0.0 0.0 0.00 0.00 0.00 67 1017.1
20260504030007 50 312 0.0 0.0 0.00 0.00 0.00 67 1017.2
20260504025508 49 310 0.0 0.0 0.00 0.00 0.00 67 1017.2
20260504025008 49 309 0.0 0.0 0.00 0.00 0.00 67 1017.2
20260504024008 50 320 0.0 0.0 0.00 0.00 0.00 66 1017.1
20260504023008 50 326 0.0 0.0 0.00 0.00 0.00 65 1017.1
20260504022507 50 333 0.0 0.0 0.00 0.00 0.00 65 1017.1
20260504021007 50 349 0.0 0.0 0.00 0.00 0.00 66 1017.2
20260504020508 50 323 0.0 0.0 0.00 0.00 0.00 67 1017.3
20260504015507 49 352 0.0 0.0 0.00 0.00 0.00 68 1017.2
20260504015007 49 340 0.0 0.0 0.00 0.00 0.00 68 1017.2
20260504014507 48 317 0.0 0.0 0.00 0.00 0.00 68 1017.2
20260504013507 48 309 0.0 0.0 0.00 0.00 0.00 67 1017.3
20260504013007 49 316 0.0 0.0 0.00 0.00 0.00 67 1017.2
20260504012508 49 318 0.0 0.0 0.00 0.00 0.00 67 1017.2
20260504011507 49 306 0.0 0.0 0.00 0.00 0.00 66 1017.1
20260504011007 49 297 0.0 0.0 0.00 0.00 0.00 66 1017.2
20260504010507 49 290 0.0 0.0 0.00 0.00 0.00 66 1017.2
20260504010007 49 296 0.0 0.0 0.00 0.00 0.00 66 1017.2
20260504005507 49 297 0.0 0.0 0.00 0.00 0.00 66 1017.1
20260504004507 49 298 0.0 0.0 0.00 0.00 0.00 66 1017.2
20260504004008 49 296 0.0 0.0 0.00 0.00 0.00 66 1017.2
20260504003507 48 297 0.0 0.0 0.00 0.00 0.00 67 1017.2
20260504003007 48 293 0.0 0.0 0.00 0.00 0.00 67 1017.2
20260504002507 48 290 0.0 0.0 0.00 0.00 0.00 68 1017.1
20260504002007 48 295 0.0 0.0 0.00 0.00 0.00 68 1017.2
20260504001507 47 314 0.0 0.0 0.00 0.00 0.00 68 1017.1
20260504001007 47 312 0.0 0.0 0.00 0.00 0.00 67 1017.1
20260504000507 47 304 0.0 0.0 0.00 0.00 0.00 68 1017.1
20260504000007 47 295 0.0 0.0 0.00 0.00 0.00 68 1017.2
20260503235507 47 300 0.0 0.0 0.00 0.00 0.00 68 1017.3
20260503235007 47 296 0.0 0.0 0.00 0.00 0.00 67 1017.3
20260503234507 47 297 0.0 0.0 0.00 0.00 0.00 67 1017.3
20260503234007 47 317 0.0 0.0 0.00 0.00 0.00 67 1017.2
20260503232507 48 326 0.0 0.0 0.00 0.00 0.00 65 1017.2
20260503232008 49 340 0.0 0.0 0.00 0.00 0.00 65 1017.2
20260503231507 49 343 0.0 0.0 0.00 0.00 0.00 65 1017.1
20260503231007 49 339 0.0 0.0 0.00 0.00 0.00 65 1017.1
20260503230508 49 346 0.0 0.0 0.00 0.00 0.00 66 1017.1
20260503225008 49 335 0.0 0.0 0.00 0.00 0.00 66 1017.2
20260503224507 49 346 0.0 0.0 0.00 0.00 0.00 66 1017.2
20260503224007 49 344 0.0 0.0 0.00 0.00 0.00 67 1017.2
20260503223508 48 343 0.0 0.0 0.00 0.00 0.00 67 1017.1
20260503223008 48 337 0.0 0.0 0.00 0.00 0.00 68 1017.1
20260503222007 48 327 0.0 0.0 0.00 0.00 0.00 68 1017.3
20260503221507 48 322 0.0 0.0 0.00 0.00 0.00 68 1017.3
20260503221007 48 329 0.0 0.0 0.00 0.00 0.00 68 1017.3
20260503220507 48 327 0.0 0.0 0.00 0.00 0.00 68 1017.4
20260503220007 48 329 0.0 0.0 0.00 0.00 0.00 68 1017.4
20260503215509 48 326 0.0 0.0 0.00 0.00 0.00 68 1017.4
20260503215007 48 330 0.0 0.0 0.00 0.00 0.00 67 1017.4
20260503214507 48 333 0.0 0.0 0.00 0.00 0.00 67 1017.5
20260503214007 49 333 0.0 0.0 0.00 0.00 0.00 67 1017.5
20260503213008 49 327 0.0 0.0 0.00 0.00 0.00 66 1017.5
20260503212007 49 325 0.0 0.0 0.00 0.00 0.00 65 1017.5
20260503211507 49 316 0.0 0.0 0.00 0.00 0.00 65 1017.4
20260503210507 50 307 0.0 0.0 0.00 0.00 0.00 65 1017.4
20260503210007 50 308 0.0 0.0 0.00 0.00 0.00 64 1017.5
20260503205508 50 318 0.0 0.0 0.00 0.00 0.00 64 1017.5
20260503205008 50 318 0.0 0.0 0.00 0.00 0.00 64 1017.5
20260503204007 50 335 0.0 0.0 0.00 0.00 0.00 64 1017.4
20260503203507 50 337 0.0 0.0 0.00 0.00 0.00 64 1017.5
20260503203007 50 306 0.0 0.0 0.00 0.00 0.00 64 1017.5
20260503202007 50 308 0.0 0.0 0.00 0.00 0.00 64 1017.6
20260503201507 50 290 0.0 0.0 0.00 0.00 0.00 64 1017.7
20260503201008 50 297 0.0 0.0 0.00 0.00 0.00 64 1017.6
20260503200507 50 315 0.0 0.0 0.00 0.00 0.00 64 1017.6
20260503195507 51 335 0.0 0.0 0.00 0.00 0.00 63 1017.6
20260503195007 51 340 0.0 0.0 0.00 0.00 0.00 62 1017.6
20260503194507 51 312 0.0 0.0 0.00 0.00 0.00 62 1017.6
20260503194008 51 344 0.0 0.0 0.00 0.00 0.00 62 1017.6
20260503193007 51 314 0.0 0.0 0.00 0.00 0.00 61 1017.5
20260503192507 51 305 0.0 0.0 0.00 0.00 0.00 61 1017.6
20260503192007 51 317 0.0 0.0 0.00 0.00 0.00 61 1017.6
20260503191507 51 295 0.0 0.0 0.00 0.00 0.00 61 1017.6
20260503191008 51 309 0.0 0.0 0.00 0.00 0.00 61 1017.5
20260503190507 51 307 0.0 0.0 0.00 0.00 0.00 61 1017.5
20260503190007 51 348 0.0 0.0 0.00 0.00 0.00 61 1017.5
20260503185007 51 342 0.0 0.0 0.00 0.00 0.00 62 1017.4
20260503184507 51 310 0.0 0.0 0.00 0.00 0.00 62 1017.3
20260503183507 51 317 0.0 0.0 0.00 0.00 0.00 62 1017.2
20260503183008 51 340 0.0 0.0 0.00 0.00 0.00 62 1017.1
20260503182507 51 337 0.0 0.0 0.00 0.00 0.00 62 1017.0
20260503181507 51 336 0.0 0.0 0.00 0.00 0.00 61 1016.9
20260503181007 51 346 0.0 0.0 0.00 0.00 0.00 61 1016.9
20260503180007 52 342 0.0 0.0 0.00 0.00 0.00 61 1016.7
20260503175507 52 1 0.0 0.0 0.00 0.00 0.00 61 1016.6
20260503174507 52 1 0.0 0.0 0.00 0.00 0.00 61 1016.6
20260503174007 52 8 0.0 0.0 0.00 0.00 0.00 61 1016.6
20260503173507 52 258 0.0 0.0 0.00 0.00 0.00 61 1016.5
20260503173007 52 353 0.0 0.0 0.00 0.00 0.00 61 1016.4
20260503172507 52 340 0.0 0.0 0.00 0.00 0.00 60 1016.4
20260503172007 52 32 0.0 0.0 0.00 0.00 0.00 60 1016.4
20260503171507 52 329 0.0 0.0 0.00 0.00 0.00 60 1016.3
20260503151007 54 26 0.0 0.0 0.00 0.00 0.00 57 1015.3
20260503150507 54 52 0.0 0.0 0.00 0.00 0.00 58 1015.3
20260503130507 54 19 0.0 0.0 0.00 0.00 0.00 57 1015.1
20260503110507 50 2 0.0 0.0 0.00 0.00 0.00 72 1015.9
20260503090507 50 2 0.0 0.0 0.00 0.00 0.00 72 1015.7
20260503081506 51 317 0.0 0.0 0.00 0.00 0.00 71 1015.2
20260503081007 51 333 0.0 0.0 0.00 0.00 0.00 73 1015.2